Regional Weather Roundup
Issued by NWS

Home | Current Version | Previous Version | Text Only | Print | Product List | Glossary On
Versions: 1 2 3 4 5 6 7 8 9 10 11 12 13 14 15 16 17 18 19 20 21 22 23 24 25 26 27 28 29 30 31 32 33 34 35 36 37 38 39 40 41 42 43 44 45 46 47 48 49 50
000
ASUS43 KLOT 300621
RWRIL

ILLINOIS REGIONAL WEATHER ROUNDUP
NATIONAL WEATHER SERVICE CHICAGO/ROMEOVILLE IL
100 AM CDT SAT MAY 30 2015

NOTE: "FAIR" INDICATES FEW OR NO CLOUDS BELOW 12,000 FEET WITH NO
SIGNIFICANT WEATHER AND/OR OBSTRUCTIONS TO VISIBILITY.

* THESE STATIONS ARE NOT UNDER NWS QUALITY CONTROL. THEY ALSO MAY NOT
  REPORT WEATHER SUCH AS PRECIPITATION OR FOG.

ILZ001-002-007-009-015-016-024-300700-
NORTHWEST ILLINOIS

CITY           SKY/WX    TMP DP  RH WIND       PRES   REMARKS
MOLINE         CLOUDY    67  64  90 SW5       29.95F
6HR MIN TEMP:  67; 6HR MAX TEMP:  76; 6HR PCP:  0.02;

STERLING*      CLOUDY    70  64  83 SW7       29.95S
SAVANNA*       CLOUDY    70  62  74 S5        29.93F
$$

ILZ003-004-008-010-011-017-018-300700-
NORTH CENTRAL ILLINOIS

CITY           SKY/WX    TMP DP  RH WIND       PRES   REMARKS
ROCKFORD       LGT RAIN  69  65  86 SW6       29.96R
6HR MIN TEMP:  68; 6HR MAX TEMP:  71; 6HR PCP:  0.09;

FREEPORT*      CLOUDY    67  64  90 SW9       29.96S
ROCHELLE*      CLOUDY    67  65  94 W7        29.96S
DE KALB*       MOCLDY    67  62  83 W7        29.96S
PERU*          CLOUDY    72  65  79 SW9       29.97S
$$

ILZ005-006-012>014-019>023-300700-
NORTHEAST ILLINOIS

CITY           SKY/WX    TMP DP  RH WIND       PRES   REMARKS
CHICAGO-OHARE  MOCLDY    71  65  81 SW8       29.93F
6HR MIN TEMP:  71; 6HR MAX TEMP:  80;

CHICAGO-MIDWAY MOCLDY    73  65  75 SW9       29.94F
6HR MIN TEMP:  73; 6HR MAX TEMP:  83;

AURORA         MOCLDY    70  64  81 SW7       29.95S
6HR MIN TEMP:  70; 6HR MAX TEMP:  80;

LANSING*       MOCLDY    68  63  84 SW6       29.96S
JOLIET*        MOCLDY    72  66  82 SW6       29.96S
WAUKEGAN       MOCLDY    69  63  81 SW8       29.92S
6HR MIN TEMP:  68; 6HR MAX TEMP:  78;

DUPAGE AIRPORT MOCLDY    70  65  84 SW8       29.94F
6HR MIN TEMP:  70; 6HR MAX TEMP:  79;

KANKAKEE*      MOCLDY    69  66  90 SW7       29.97F
WHEELING       MOCLDY    71  66  84 SW6       29.94S
6HR MIN TEMP:  69; 6HR MAX TEMP:  81; 6HR PCP:  0.11;

MORRIS*        MOCLDY    69  65  88 SW9       29.94F
ROMEOVILLE*    MOCLDY    70  64  80 SW12      29.96S
NORTHERLY ISL    N/A     73  62  68 SW5         N/A
$$

LMZ740>746-300700-
SOUTHERN LAKE MICHIGAN

STATION/POSITION SKY/WX   TEMP    WIND        PRES    VSBY  WAVE
                          AIR SEA DIR/SP/G                  HT/PER
                          (F)     (DEG/KT/KT) (MB)    (MI)  (FT/S)
SOUTHERN BUOY              49 38  200/ 10/ 14 1013.3F         0
HARRISON CRIB              73     220/ 18/ 22   N/A
BURNHAM HARBOR             73     220/  4/  8   N/A
CALUMET HARBOR             71     210/  6/  9   N/A
BURNS HARBOR               70     200/ 10/ 13 1014.9R
MICHIGAN CITY              71     180/ 11/ 15   N/A
MICHIGAN CITY 6N           62 56  220/  6/  8   N/A           1
ST. JOSEPH                 63 58  220/  8/ 10   N/A           1/ 3
$$

ILZ025>027-034>036-040-047-049-050-058-095>099-300700-
WEST-CENTRAL ILLINOIS

CITY           SKY/WX    TMP DP  RH WIND       PRES   REMARKS
QUINCY         LGT RAIN  67  65  93 CALM      29.99F FOG
GALESBURG*     LGT RAIN  68  64  86 SW7       29.98S
MACOMB*        LGT RAIN  68  66  93 SW7       30.01S
JACKSONVILLE*  TSTM      68  66  94 SW3       30.02R
PITTSFIELD*    RAIN      67  64  91 CALM      30.00F
$$

ILZ028>032-037-038-041>044-048-051>054-059>061-300700-
CENTRAL ILLINOIS

CITY           SKY/WX    TMP DP  RH WIND       PRES   REMARKS
PONTIAC        CLOUDY    70  68  93 SW5       29.98F
BLOOMINGTON    CLOUDY    69  68  97 SW7       29.99F
DECATUR        CLOUDY    70  65  84 SW7       29.99S
PEORIA         CLOUDY    73  67  81 W6        29.97F
6HR MIN TEMP:  72; 6HR MAX TEMP:  81;

LACON*         CLOUDY    70  66  88 S3        29.96S
LINCOLN*       TSTM      71  68  91 SW6       29.97R
SPRINGFIELD    RAIN      72  68  87 W20G25    30.01R
6HR MIN TEMP:  72; 6HR MAX TEMP:  74; 6HR PCP:  0.01;

TAYLORVILLE    CLOUDY    68  64  88 SW6       29.99F
$$

ILZ033-039-045-046-055>057-062-063-300700-
EAST-CENTRAL ILLINOIS

CITY           SKY/WX    TMP DP  RH WIND       PRES   REMARKS
CHAMPAIGN      CLOUDY    69  66  90 SW5       30.00S
DANVILLE*      LGT RAIN  70  64  82 SW7       29.97F
RANTOUL*       CLOUDY    71  68  92 SW6       29.99F
MATTOON        CLOUDY    68  65  90 S6        29.99S
PARIS*         CLOUDY    70  64  80 CALM      30.01S
$$

ILZ079-100>102-300700-
SOUTHWEST ILLINOIS

CITY           SKY/WX    TMP DP  RH WIND       PRES   REMARKS
ALTON          CLOUDY    69  69 100 N3        29.99F
BELLEVILLE     CLOUDY    68  68 100 SE5       29.97F
CAHOKIA*       CLOUDY    70  65  84 SE7       29.97F
SPARTA*        MOCLDY    67  66  97 SE7       30.00S
$$

ILZ064>066-069>071-074>076-080>082-084>086-088>090-092>094-300700-
SOUTH-CENTRAL ILLINOIS

CITY           SKY/WX    TMP DP  RH WIND       PRES   REMARKS
CARBONDALE     MOCLDY    69  67  93 CALM      30.00F
6HR MIN TEMP:  69; 6HR MAX TEMP:  81; 6HR PCP:  0.07;

CAIRO*         PTCLDY    74  69  83 SE5       30.00S
EFFINGHAM*     CLOUDY    68  64  86 S6        30.03R
MARION         MOCLDY    68  68 100 CALM      30.01F
MT. VERNON     CLOUDY    68  64  88 CALM      30.01F
CENTRALIA*     LGT RAIN  66  65  94 E6        30.00F
SALEM*         RAIN      69  66  90 SE6       30.02F
METROPOLIS*    PTCLDY    73  69  87 SE3       30.00F
$$

ILZ067-068-072-073-078-083-087-091-300700-
SOUTHEAST ILLINOIS

CITY           SKY/WX    TMP DP  RH WIND       PRES   REMARKS
LAWRENCEVILLE  CLEAR     69  65  86 S6        30.02S
FLORA*         PTCLDY    67  66  96 SW9       30.04R
FAIRFIELD*     CLOUDY    69  66  89 CALM      30.02S
HARRISBURG*    CLEAR     70  67  91 CALM      30.02S
ROBINSON*      PTCLDY    68  65  89 CALM      30.02F
CARMI*         CLEAR     68  61  77 CALM      30.02S
$$

ABBREVIATIONS USED IN REMARKS
   TC - TEMPERATURE IN CELSIUS
  WCI - WIND CHILL INDEX
   HX - HEAT INDEX
  VSB - VISIBILITY
$$




USA.gov is the U.S. government's official web portal to all federal, state and local government web resources and services.